Location: Lombard
(41.8800°N, 88.0080°W)
Time: 13:35:59
(UTC-05:00)

CUBEBUG 2 - Visible Passes

Search period start: 16 May 2022 00:00
Search period end: 26 May 2022 00:00
Orbit: 585 x 693 km, 97.7° (Epoch: 15 May)

Date Brightness Start Highest point End Pass type
(mag) Time Alt. Az. Time Alt. Az. Time Alt. Az.
16 May ? 03:47:01 10° NNE 03:51:34 65° E 03:55:00 16° S visible
17 May ? 02:36:34 10° ENE 02:37:39 11° E 02:38:43 10° ESE visible
17 May ? 04:10:10 10° N 04:14:42 71° WNW 04:18:27 14° SSW visible
18 May ? 02:57:51 10° NE 03:01:04 19° E 03:04:12 10° SE visible
18 May ? 04:33:32 10° N 04:37:45 39° WNW 04:41:49 10° SW visible
19 May ? 03:20:20 10° NNE 03:24:24 33° E 03:27:44 13° SSE visible
19 May ? 04:57:09 10° NNW 05:00:43 23° WNW 05:04:10 10° WSW visible
20 May ? 03:43:11 10° NNE 03:47:38 59° E 03:51:08 15° S visible
21 May ? 04:06:18 10° N 04:10:46 77° WNW 04:14:33 13° SSW visible
22 May ? 02:54:09 10° NE 02:57:04 17° E 02:59:56 10° SE visible
22 May ? 04:29:36 10° N 04:33:49 42° WNW 04:37:53 10° SW visible
23 May ? 03:16:30 10° NE 03:20:24 30° E 03:23:48 12° SSE visible
24 May ? 03:39:18 10° NNE 03:43:38 53° E 03:47:10 14° S visible
25 May ? 04:02:21 10° N 04:06:46 84° WNW 04:10:34 13° SSW visible
